LEGION 2

Last updated on Sun Jun 21 2026 00:02:53 GMT+0000 (Coordinated Universal Time)

1 59626U 24081B 26171.48983050 .00002864 00000+0 14962-3 0 9991 2 59626 97.5015 249.4091 0010476 331.4775 28.5884 15.16663670118044
UTC large
Height (km)
Speed (km/s)
/
Latitude / Longitude
Inclination (degrees)
Orbital Period (minutes)
Azimuth
Elevation
Range (km)
Doppler Factor

Next 0 passes for location: London (51.5072 / 0.1276)

No passes found over London.
LEGION 2